Previsão horária em Aarschot

Hoje, 11 Abril, Domingo

Tempo Temperatura Precipitação Vento Pressão Humidade
00:00 +3°C° 0 mm 3 m/s 753 mmHg 97%
01:00 +2°C° 0.1 mm 3 m/s 753 mmHg 97%
02:00 +2°C° 0.1 mm 3 m/s 753 mmHg 97%
03:00 0°C° 0.1 mm 4 m/s 753 mmHg 97%
04:00 0°C° 0.3 mm 4 m/s 754 mmHg 97%
05:00 0°C° 0.3 mm 4 m/s 754 mmHg 97%
06:00 0°C° 0.3 mm 4 m/s 755 mmHg 97%
07:00 +1°C° 0.1 mm 4 m/s 755 mmHg 93%
08:00 +1°C° 0.1 mm 4 m/s 755 mmHg 90%
09:00 +2°C° 0.1 mm 5 m/s 756 mmHg 86%
10:00 +2°C° 0.1 mm 5 m/s 756 mmHg 81%
11:00 +3°C° 0.1 mm 5 m/s 757 mmHg 76%
12:00 +5°C° 0.1 mm 5 m/s 757 mmHg 71%
13:00 +6°C° 0 mm 5 m/s 757 mmHg 64%
14:00 +6°C° 0 mm 5 m/s 757 mmHg 58%
15:00 +7°C° 0 mm 5 m/s 757 mmHg 51%
16:00 +6°C° 0 mm 5 m/s 758 mmHg 53%
17:00 +5°C° 0 mm 5 m/s 759 mmHg 56%
18:00 +3°C° 0 mm 5 m/s 759 mmHg 59%
19:00 +3°C° 0 mm 4 m/s 760 mmHg 63%
20:00 +2°C° 0 mm 3 m/s 761 mmHg 67%
21:00 +1°C° 0 mm 3 m/s 762 mmHg 71%
22:00 +1°C° 0 mm 2 m/s 762 mmHg 74%
23:00 +1°C° 0 mm 2 m/s 763 mmHg 76%

Amanhã, 12 Abril, Segunda-feira

Tempo Temperatura Precipitação Vento Pressão Humidade
00:00 -1°C° 0 mm 2 m/s 763 mmHg 79%
01:00 -1°C° 0 mm 2 m/s 764 mmHg 79%
02:00 -1°C° 0 mm 2 m/s 764 mmHg 80%
03:00 -1°C° 0 mm 2 m/s 764 mmHg 81%
04:00 -1°C° 0 mm 2 m/s 765 mmHg 80%
05:00 +1°C° 0 mm 2 m/s 765 mmHg 78%
06:00 +1°C° 0 mm 2 m/s 765 mmHg 77%
07:00 +2°C° 0.1 mm 2 m/s 766 mmHg 76%
08:00 +3°C° 0.1 mm 2 m/s 766 mmHg 75%
09:00 +5°C° 0.1 mm 2 m/s 766 mmHg 74%
10:00 +4°C° 0.3 mm 3 m/s 766 mmHg 69%
11:00 +5°C° 0.3 mm 3 m/s 766 mmHg 65%
12:00 +6°C° 0.3 mm 4 m/s 766 mmHg 61%
13:00 +6°C° 0.1 mm 4 m/s 766 mmHg 56%
14:00 +7°C° 0.1 mm 5 m/s 766 mmHg 50%
15:00 +7°C° 0.1 mm 5 m/s 766 mmHg 45%
16:00 +6°C° 0 mm 4 m/s 766 mmHg 51%
17:00 +5°C° 0 mm 4 m/s 767 mmHg 56%
18:00 +4°C° 0 mm 3 m/s 767 mmHg 62%
19:00 +3°C° 0 mm 3 m/s 768 mmHg 67%
20:00 +1°C° 0 mm 3 m/s 768 mmHg 72%
21:00 +1°C° 0 mm 2 m/s 769 mmHg 77%
22:00 +1°C° 0 mm 2 m/s 769 mmHg 79%
23:00 +1°C° 0 mm 2 m/s 769 mmHg 80%

Depois de amanhã, 13 Abril, Terça-feira

Tempo Temperatura Precipitação Vento Pressão Humidade
00:00 -1°C° 0 mm 2 m/s 769 mmHg 82%
01:00 +1°C° 0 mm 1 m/s 769 mmHg 83%
02:00 +1°C° 0 mm 1 m/s 770 mmHg 84%
03:00 +1°C° 0 mm 1 m/s 770 mmHg 86%
04:00 +1°C° 0 mm 1 m/s 770 mmHg 83%
05:00 +2°C° 0 mm 1 m/s 770 mmHg 80%
06:00 +2°C° 0 mm 1 m/s 771 mmHg 77%
07:00 +4°C° 0 mm 1 m/s 771 mmHg 70%
08:00 +5°C° 0 mm 2 m/s 771 mmHg 64%
09:00 +7°C° 0 mm 2 m/s 771 mmHg 57%
10:00 +8°C° 0.1 mm 3 m/s 771 mmHg 54%
11:00 +8°C° 0.1 mm 3 m/s 770 mmHg 52%
12:00 +9°C° 0.1 mm 3 m/s 770 mmHg 49%
13:00 +8°C° 0.2 mm 4 m/s 770 mmHg 49%
14:00 +8°C° 0.2 mm 4 m/s 770 mmHg 48%
15:00 +8°C° 0.2 mm 4 m/s 770 mmHg 48%
16:00 +7°C° 0 mm 4 m/s 770 mmHg 52%
17:00 +6°C° 0 mm 4 m/s 770 mmHg 56%
18:00 +4°C° 0 mm 3 m/s 770 mmHg 60%
19:00 +3°C° 0 mm 3 m/s 770 mmHg 64%
20:00 +3°C° 0 mm 2 m/s 771 mmHg 67%
21:00 +2°C° 0 mm 2 m/s 771 mmHg 70%
22:00 +3°C° 0 mm 1 m/s 771 mmHg 72%
23:00 +2°C° 0 mm 1 m/s 771 mmHg 74%

14 Abril, Quarta-feira

Tempo Temperatura Precipitação Vento Pressão Humidade
00:00 +2°C° 0 mm 1 m/s 771 mmHg 76%
01:00 +1°C° 0 mm 1 m/s 771 mmHg 78%
02:00 +1°C° 0 mm 1 m/s 771 mmHg 79%
03:00 +1°C° 0 mm 1 m/s 770 mmHg 81%
04:00 +1°C° 0 mm 1 m/s 771 mmHg 79%
05:00 +2°C° 0 mm 1 m/s 771 mmHg 78%
06:00 +2°C° 0 mm 1 m/s 771 mmHg 76%
07:00 +4°C° 0 mm 1 m/s 771 mmHg 69%
08:00 +6°C° 0 mm 1 m/s 771 mmHg 62%
09:00 +7°C° 0 mm 2 m/s 771 mmHg 54%
10:00 +8°C° 0 mm 2 m/s 770 mmHg 49%
11:00 +8°C° 0 mm 2 m/s 770 mmHg 44%
12:00 +9°C° 0 mm 2 m/s 770 mmHg 39%
13:00 +9°C° 0 mm 3 m/s 770 mmHg 40%
14:00 +9°C° 0 mm 3 m/s 769 mmHg 42%
15:00 +9°C° 0 mm 3 m/s 769 mmHg 43%
16:00 +8°C° 0.2 mm 3 m/s 769 mmHg 53%
17:00 +6°C° 0.2 mm 4 m/s 769 mmHg 63%
18:00 +5°C° 0.2 mm 4 m/s 769 mmHg 73%
19:00 +4°C° 0 mm 4 m/s 770 mmHg 77%
20:00 +3°C° 0 mm 3 m/s 770 mmHg 81%
21:00 +2°C° 0 mm 3 m/s 770 mmHg 85%
22:00 +1°C° 0 mm 3 m/s 770 mmHg 86%
23:00 +1°C° 0 mm 3 m/s 770 mmHg 87%

15 Abril, Quinta-feira

Tempo Temperatura Precipitação Vento Pressão Humidade
00:00 0°C° 0 mm 3 m/s 770 mmHg 89%
01:00 0°C° 0 mm 3 m/s 770 mmHg 89%
02:00 -1°C° 0 mm 2 m/s 770 mmHg 90%
03:00 -1°C° 0 mm 2 m/s 770 mmHg 91%
04:00 -1°C° 0 mm 2 m/s 771 mmHg 89%
05:00 -1°C° 0 mm 2 m/s 771 mmHg 88%
06:00 +1°C° 0 mm 2 m/s 771 mmHg 87%
07:00 +3°C° 0 mm 2 m/s 771 mmHg 76%
08:00 +4°C° 0 mm 3 m/s 771 mmHg 66%
09:00 +5°C° 0 mm 3 m/s 771 mmHg 55%
10:00 +7°C° 0 mm 3 m/s 771 mmHg 50%
11:00 +8°C° 0 mm 3 m/s 771 mmHg 46%
12:00 +9°C° 0 mm 3 m/s 771 mmHg 41%
13:00 +10°C° 0 mm 4 m/s 770 mmHg 40%
14:00 +10°C° 0 mm 4 m/s 770 mmHg 39%
15:00 +9°C° 0 mm 5 m/s 770 mmHg 39%
16:00 +8°C° 0 mm 4 m/s 770 mmHg 43%
17:00 +7°C° 0 mm 4 m/s 770 mmHg 47%
18:00 +7°C° 0 mm 3 m/s 770 mmHg 52%
19:00 +6°C° 0 mm 4 m/s 770 mmHg 55%
20:00 +5°C° 0 mm 4 m/s 770 mmHg 59%
21:00 +5°C° 0 mm 4 m/s 770 mmHg 63%
22:00 +4°C° 0 mm 4 m/s 770 mmHg 67%
23:00 +3°C° 0 mm 4 m/s 770 mmHg 72%

16 Abril, Sexta-feira

Tempo Temperatura Precipitação Vento Pressão Humidade
00:00 +2°C° 0 mm 3 m/s 770 mmHg 77%
01:00 +2°C° 0 mm 3 m/s 770 mmHg 78%
02:00 0°C° 0 mm 4 m/s 770 mmHg 79%
03:00 0°C° 0 mm 4 m/s 770 mmHg 80%
04:00 0°C° 0 mm 4 m/s 770 mmHg 78%
05:00 0°C° 0 mm 4 m/s 770 mmHg 77%
06:00 +1°C° 0 mm 4 m/s 770 mmHg 76%
07:00 +2°C° 0 mm 5 m/s 770 mmHg 70%
08:00 +4°C° 0 mm 6 m/s 770 mmHg 64%
09:00 +7°C° 0 mm 6 m/s 770 mmHg 57%
10:00 +8°C° 0 mm 7 m/s 769 mmHg 54%
11:00 +9°C° 0 mm 7 m/s 769 mmHg 51%
12:00 +10°C° 0 mm 7 m/s 768 mmHg 48%
13:00 +10°C° 0 mm 7 m/s 768 mmHg 48%
14:00 +11°C° 0 mm 7 m/s 768 mmHg 48%
15:00 +11°C° 0 mm 7 m/s 767 mmHg 47%
16:00 +10°C° 0 mm 6 m/s 767 mmHg 51%
17:00 +10°C° 0 mm 5 m/s 767 mmHg 54%
18:00 +9°C° 0 mm 5 m/s 767 mmHg 58%
19:00 +8°C° 0 mm 4 m/s 767 mmHg 61%
20:00 +7°C° 0 mm 4 m/s 767 mmHg 64%
21:00 +6°C° 0 mm 4 m/s 767 mmHg 67%
22:00 +6°C° 0 mm 4 m/s 767 mmHg 72%
23:00 +5°C° 0 mm 4 m/s 767 mmHg 76%
Mostrar mais